This is the latest recevied weather packets stored in our database for station/object DB0MI. If no packets are shown the sender has not sent any weather packets the latest 1 day(s).
| Time | Temp. | Humidity | Pressure | Rain* | Wind** | Luminosity | Snow |
|---|---|---|---|---|---|---|---|
| 1836274594 | 19.44° C | 65% | 1019.9 hPa | 0 mm | 0 m/s | - | - |
| 1836274444 | 18.89° C | 65% | 1019.8 hPa | 0 mm | 0 m/s | - | - |
| 1836273995 | 19.44° C | 65% | 1019.9 hPa | 0 mm | 0 m/s | - | - |
| 1778008904 | 11.67° C | 91% | 1006.2 hPa | 0 mm | 0 m/s | - | - |
| 1778008304 | 11.67° C | 91% | 1006.4 hPa | 0 mm | 0 m/s | - | - |
| 1778007704 | 11.67° C | 91% | 1006.4 hPa | 0 mm | 0 m/s | - | - |
| 1778007104 | 11.67° C | 91% | 1006.4 hPa | 0 mm | 0 m/s | - | - |
| 1778006504 | 11.67° C | 91% | 1006.3 hPa | 0 mm | 0 m/s | - | - |
| 1778005904 | 11.67° C | 91% | 1006.1 hPa | 0 mm | 0 m/s | - | - |
| 1778005304 | 12.22° C | 91% | 1006.1 hPa | 0 mm | 0 m/s | - | - |
| 1778004704 | 12.22° C | 91% | 1006.1 hPa | 0 mm | 0 m/s | - | - |
| 1778004104 | 12.22° C | 91% | 1006.1 hPa | 0 mm | 0 m/s | - | - |
| 1778003504 | 12.22° C | 91% | 1006.3 hPa | 0 mm | 0 m/s | - | - |
| 1778002904 | 12.78° C | 90% | 1006.3 hPa | 0 mm | 0 m/s | - | - |
| 1778002304 | 12.78° C | 90% | 1006.6 hPa | 0 mm | 0 m/s | - | - |
| 1778001704 | 12.78° C | 90% | 1006.6 hPa | 0 mm | 0 m/s | - | - |
| 1778001104 | 12.78° C | 90% | 1006.5 hPa | 0.51 mm | 0 m/s | - | - |
| 1778000504 | 12.78° C | 90% | 1006.7 hPa | 0.51 mm | 0 m/s | - | - |
| 1777999904 | 12.78° C | 90% | 1006.6 hPa | 1.02 mm | 0 m/s | - | - |
| 1777999304 | 12.78° C | 90% | 1006.8 hPa | 1.02 mm | 0 m/s | - | - |
| 1777998704 | 12.78° C | 89% | 1006.9 hPa | 1.52 mm | 0 m/s | - | - |
| 1777998104 | 12.78° C | 89% | 1007.1 hPa | 2.03 mm | 0 m/s | - | - |
| 1777997504 | 12.78° C | 89% | 1007.1 hPa | 1.52 mm | 0 m/s | - | - |
| 1777996904 | 12.78° C | 88% | 1007.4 hPa | 2.03 mm | 0 m/s | - | - |
| 1777996304 | 12.78° C | 88% | 1007.6 hPa | 3.05 mm | 0 m/s | - | - |
* Rain latest hour (hover to see other rain measurements)
** Current wind speed in m/s (hover to see current wind gust speed)